Time,TemperatureF,DewpointF,PressureIn,WindDirection,WindDirectionDegrees,WindSpeedMPH,WindSpeedGustMPH,Humidity,HourlyPrecipIn,Conditions,Clouds,dailyrainin,SoftwareType,DateUTC
2013-01-21 00:05:00,0.9,-4.4,30.22,West,264,0.0,0.0,78,0.00,,,0.00,Wunderground v.1.15,2013-01-21 06:05:00,
2013-01-21 00:10:00,0.9,-4.4,30.22,WSW,258,0.0,0.0,78,0.00,,,0.00,Wunderground v.1.15,2013-01-21 06:10:00,
2013-01-21 00:16:00,0.9,-4.4,30.22,West,265,0.0,0.0,78,0.00,,,0.00,Wunderground v.1.15,2013-01-21 06:16:00,
2013-01-21 00:21:00,0.9,-4.4,30.21,West,274,0.0,0.0,78,0.00,,,0.00,Wunderground v.1.15,2013-01-21 06:21:00,
2013-01-21 00:27:00,0.9,-4.4,30.21,West,276,0.0,0.0,78,0.00,,,0.00,Wunderground v.1.15,2013-01-21 06:27:00,
2013-01-21 00:32:00,0.9,-4.4,30.21,WNW,290,0.0,0.0,78,0.00,,,0.00,Wunderground v.1.15,2013-01-21 06:32:00,
2013-01-21 00:38:00,0.9,-4.4,30.21,WNW,288,0.0,0.0,78,0.00,,,0.00,Wunderground v.1.15,2013-01-21 06:38:00,
2013-01-21 00:43:00,0.8,-4.5,30.21,NW,304,0.0,0.0,78,0.00,,,0.00,Wunderground v.1.15,2013-01-21 06:43:00,
2013-01-21 00:49:00,0.8,-4.5,30.20,West,279,0.0,0.0,78,0.00,,,0.00,Wunderground v.1.15,2013-01-21 06:49:00,
2013-01-21 00:54:00,0.8,-4.5,30.20,WNW,291,0.0,0.0,78,0.00,,,0.00,Wunderground v.1.15,2013-01-21 06:54:00,
2013-01-21 00:59:00,0.7,-4.6,30.20,WNW,285,0.0,0.0,78,0.00,,,0.00,Wunderground v.1.15,2013-01-21 06:59:00,
2013-01-21 01:04:00,0.7,-4.8,30.20,West,270,0.0,0.0,77,0.00,,,0.00,Wunderground v.1.15,2013-01-21 07:04:00,
2013-01-21 01:10:00,0.7,-4.8,30.20,WNW,294,0.0,0.0,77,0.00,,,0.00,Wunderground v.1.15,2013-01-21 07:10:00,
2013-01-21 01:16:00,0.6,-4.6,30.19,WNW,285,0.0,0.0,78,0.00,,,0.00,Wunderground v.1.15,2013-01-21 07:16:00,
2013-01-21 01:22:00,0.5,-5.0,30.19,West,272,0.0,0.0,77,0.00,,,0.00,Wunderground v.1.15,2013-01-21 07:22:00,
2013-01-21 01:27:00,0.5,-5.0,30.19,NW,306,0.0,0.0,77,0.00,,,0.00,Wunderground v.1.15,2013-01-21 07:27:00,
2013-01-21 01:32:00,0.4,-5.1,30.19,West,272,0.0,0.0,77,0.00,,,0.00,Wunderground v.1.15,2013-01-21 07:32:00,
2013-01-21 01:38:00,0.4,-5.1,30.19,West,265,0.0,0.0,77,0.00,,,0.00,Wunderground v.1.15,2013-01-21 07:38:00,
2013-01-21 01:43:00,0.3,-5.2,30.19,WNW,296,0.0,0.0,77,0.00,,,0.00,Wunderground v.1.15,2013-01-21 07:43:00,
2013-01-21 01:49:00,0.2,-5.3,30.19,WNW,291,0.0,0.0,77,0.00,,,0.00,Wunderground v.1.15,2013-01-21 07:49:00,
2013-01-21 01:55:00,0.1,-5.4,30.19,WNW,282,0.0,0.0,77,0.00,,,0.00,Wunderground v.1.15,2013-01-21 07:55:00,
2013-01-21 02:01:00,0.0,-5.2,30.19,WNW,301,0.0,0.0,78,0.00,,,0.00,Wunderground v.1.15,2013-01-21 08:01:00,
2013-01-21 02:06:00,-0.1,-5.3,30.19,WNW,290,0.0,0.0,78,0.00,,,0.00,Wunderground v.1.15,2013-01-21 08:06:00,
2013-01-21 02:13:00,-0.3,-5.5,30.19,West,281,0.0,0.0,78,0.00,,,0.00,Wunderground v.1.15,2013-01-21 08:13:00,
2013-01-21 02:18:00,-0.3,-5.5,30.19,West,280,0.0,0.0,78,0.00,,,0.00,Wunderground v.1.15,2013-01-21 08:18:00,
2013-01-21 02:24:00,-0.4,-5.9,30.19,West,261,0.0,0.0,77,0.00,,,0.00,Wunderground v.1.15,2013-01-21 08:24:00,
2013-01-21 02:30:00,-0.6,-5.8,30.19,WNW,296,0.0,0.0,78,0.00,,,0.00,Wunderground v.1.15,2013-01-21 08:30:00,
2013-01-21 02:36:00,-0.7,-5.9,30.19,West,268,0.0,0.0,78,0.00,,,0.00,Wunderground v.1.15,2013-01-21 08:36:00,
2013-01-21 02:41:00,-0.8,-6.0,30.19,West,277,0.0,0.0,78,0.00,,,0.00,Wunderground v.1.15,2013-01-21 08:41:00,
2013-01-21 02:47:00,-0.9,-6.1,30.19,West,266,0.0,0.0,78,0.00,,,0.00,Wunderground v.1.15,2013-01-21 08:47:00,
2013-01-21 02:52:00,-1.0,-6.2,30.19,WSW,257,0.0,0.0,78,0.00,,,0.00,Wunderground v.1.15,2013-01-21 08:52:00,
2013-01-21 02:57:00,-1.1,-6.3,30.19,WNW,292,0.0,0.0,78,0.00,,,0.00,Wunderground v.1.15,2013-01-21 08:57:00,
2013-01-21 03:03:00,-1.2,-6.1,30.19,WNW,294,0.0,0.0,79,0.00,,,0.00,Wunderground v.1.15,2013-01-21 09:03:00,
2013-01-21 03:09:00,-1.2,-6.1,30.19,WNW,290,0.0,0.0,79,0.00,,,0.00,Wunderground v.1.15,2013-01-21 09:09:00,
2013-01-21 03:14:00,-1.2,-6.1,30.19,NW,309,0.0,0.0,79,0.00,,,0.00,Wunderground v.1.15,2013-01-21 09:14:00,
2013-01-21 03:20:00,-1.3,-6.2,30.19,NW,304,0.0,0.0,79,0.00,,,0.00,Wunderground v.1.15,2013-01-21 09:20:00,
2013-01-21 03:25:00,-1.4,-6.1,30.19,WNW,300,0.0,0.0,80,0.00,,,0.00,Wunderground v.1.15,2013-01-21 09:25:00,
2013-01-21 03:31:00,-1.5,-6.4,30.19,NW,318,0.0,0.0,79,0.00,,,0.00,Wunderground v.1.15,2013-01-21 09:31:00,
2013-01-21 03:37:00,-1.7,-6.9,30.19,West,279,0.0,0.0,78,0.00,,,0.00,Wunderground v.1.15,2013-01-21 09:37:00,
2013-01-21 03:43:00,-1.9,-7.1,30.19,NNE,22,0.0,0.0,78,0.00,,,0.00,Wunderground v.1.15,2013-01-21 09:43:00,
2013-01-21 03:48:00,-2.1,-7.3,30.19,NW,317,0.0,0.0,78,0.00,,,0.00,Wunderground v.1.15,2013-01-21 09:48:00,
2013-01-21 03:54:00,-2.3,-7.7,30.19,West,281,0.0,0.0,77,0.00,,,0.00,Wunderground v.1.15,2013-01-21 09:54:00,
2013-01-21 03:59:00,-2.4,-7.6,30.19,WNW,288,0.0,0.0,78,0.00,,,0.00,Wunderground v.1.15,2013-01-21 09:59:00,
2013-01-21 04:04:00,-2.7,-8.4,30.19,WNW,294,0.0,0.0,76,0.00,,,0.00,Wunderground v.1.15,2013-01-21 10:04:00,
2013-01-21 04:10:00,-2.9,-8.6,30.19,NW,311,0.0,0.0,76,0.00,,,0.00,Wunderground v.1.15,2013-01-21 10:10:00,
2013-01-21 04:16:00,-3.1,-9.1,30.19,NNW,335,0.0,0.0,75,0.00,,,0.00,Wunderground v.1.15,2013-01-21 10:16:00,
2013-01-21 04:21:00,-3.3,-9.2,30.19,NW,318,0.0,0.0,75,0.00,,,0.00,Wunderground v.1.15,2013-01-21 10:21:00,
2013-01-21 04:27:00,-3.4,-9.3,30.19,NW,316,0.0,0.0,75,0.00,,,0.00,Wunderground v.1.15,2013-01-21 10:27:00,
2013-01-21 04:33:00,-3.7,-9.9,30.19,WNW,286,0.0,0.0,74,0.00,,,0.00,Wunderground v.1.15,2013-01-21 10:33:00,
2013-01-21 04:39:00,-4.0,-10.2,30.20,WNW,303,0.0,0.0,74,0.00,,,0.00,Wunderground v.1.15,2013-01-21 10:39:00,
2013-01-21 04:45:00,-4.1,-10.3,30.19,NNW,327,0.0,0.0,74,0.00,,,0.00,Wunderground v.1.15,2013-01-21 10:45:00,
2013-01-21 04:50:00,-4.3,-10.5,30.19,WNW,298,0.0,0.0,74,0.00,,,0.00,Wunderground v.1.15,2013-01-21 10:50:00,
2013-01-21 04:56:00,-4.5,-10.7,30.19,West,269,0.0,0.0,74,0.00,,,0.00,Wunderground v.1.15,2013-01-21 10:56:00,
2013-01-21 05:01:00,-4.7,-10.9,30.20,West,277,0.0,0.0,74,0.00,,,0.00,Wunderground v.1.15,2013-01-21 11:01:00,
2013-01-21 05:07:00,-4.8,-11.0,30.20,West,269,0.0,0.0,74,0.00,,,0.00,Wunderground v.1.15,2013-01-21 11:07:00,
2013-01-21 05:13:00,-5.0,-11.2,30.20,NNW,341,0.0,0.0,74,0.00,,,0.00,Wunderground v.1.15,2013-01-21 11:13:00,
2013-01-21 05:19:00,-5.2,-11.4,30.20,WNW,300,0.0,0.0,74,0.00,,,0.00,Wunderground v.1.15,2013-01-21 11:19:00,
2013-01-21 05:24:00,-5.4,-11.3,30.20,WNW,302,0.0,0.0,75,0.00,,,0.00,Wunderground v.1.15,2013-01-21 11:24:00,
2013-01-21 05:30:00,-5.6,-11.5,30.20,West,279,0.0,0.0,75,0.00,,,0.00,Wunderground v.1.15,2013-01-21 11:30:00,
2013-01-21 05:36:00,-6.0,-12.4,30.20,WNW,285,0.0,0.0,73,0.00,,,0.00,Wunderground v.1.15,2013-01-21 11:36:00,
2013-01-21 05:41:00,-6.3,-13.0,30.21,WNW,285,0.0,0.0,72,0.00,,,0.00,Wunderground v.1.15,2013-01-21 11:41:00,
2013-01-21 05:47:00,-6.4,-12.8,30.21,West,259,0.0,0.0,73,0.00,,,0.00,Wunderground v.1.15,2013-01-21 11:47:00,
2013-01-21 05:52:00,-6.7,-13.4,30.21,West,269,0.0,0.0,72,0.00,,,0.00,Wunderground v.1.15,2013-01-21 11:52:00,
2013-01-21 05:58:00,-6.9,-13.6,30.21,WNW,294,0.0,0.0,72,0.00,,,0.00,Wunderground v.1.15,2013-01-21 11:58:00,
2013-01-21 06:04:00,-7.1,-14.0,30.21,North,360,0.0,0.0,71,0.00,,,0.00,Wunderground v.1.15,2013-01-21 12:04:00,
2013-01-21 06:10:00,-7.3,-13.9,30.21,WNW,297,0.0,0.0,72,0.00,,,0.00,Wunderground v.1.15,2013-01-21 12:10:00,
2013-01-21 06:16:00,-7.4,-14.3,30.21,WSW,257,0.0,0.0,71,0.00,,,0.00,Wunderground v.1.15,2013-01-21 12:16:00,
2013-01-21 06:22:00,-7.6,-14.5,30.21,West,281,0.0,0.0,71,0.00,,,0.00,Wunderground v.1.15,2013-01-21 12:22:00,
2013-01-21 06:28:00,-7.7,-14.6,30.21,NW,306,0.0,0.0,71,0.00,,,0.00,Wunderground v.1.15,2013-01-21 12:28:00,
2013-01-21 06:33:00,-7.9,-14.8,30.21,West,277,0.0,0.0,71,0.00,,,0.00,Wunderground v.1.15,2013-01-21 12:33:00,
2013-01-21 06:39:00,-8.0,-14.6,30.21,WNW,286,0.0,0.0,72,0.00,,,0.00,Wunderground v.1.15,2013-01-21 12:39:00,
2013-01-21 06:45:00,-8.1,-14.7,30.21,West,274,0.0,0.0,72,0.00,,,0.00,Wunderground v.1.15,2013-01-21 12:45:00,
2013-01-21 06:51:00,-8.2,-14.8,30.21,West,266,0.0,0.0,72,0.00,,,0.00,Wunderground v.1.15,2013-01-21 12:51:00,
2013-01-21 06:57:00,-8.2,-14.8,30.21,WNW,289,0.0,0.0,72,0.00,,,0.00,Wunderground v.1.15,2013-01-21 12:57:00,
2013-01-21 07:03:00,-8.4,-14.7,30.21,WNW,290,0.0,0.0,73,0.00,,,0.00,Wunderground v.1.15,2013-01-21 13:03:00,
2013-01-21 07:09:00,-8.5,-14.8,30.21,WNW,303,0.0,0.0,73,0.00,,,0.00,Wunderground v.1.15,2013-01-21 13:09:00,
2013-01-21 07:14:00,-8.5,-14.8,30.22,WNW,298,0.0,0.0,73,0.00,,,0.00,Wunderground v.1.15,2013-01-21 13:14:00,
2013-01-21 07:20:00,-8.6,-15.2,30.22,West,277,0.0,0.0,72,0.00,,,0.00,Wunderground v.1.15,2013-01-21 13:20:00,
2013-01-21 07:25:00,-8.7,-15.3,30.22,NW,315,0.0,0.0,72,0.00,,,0.00,Wunderground v.1.15,2013-01-21 13:25:00,
2013-01-21 07:30:00,-8.8,-15.1,30.22,WNW,299,0.0,0.0,73,0.00,,,0.00,Wunderground v.1.15,2013-01-21 13:30:00,
2013-01-21 07:36:00,-8.8,-15.1,30.23,NW,305,0.0,0.0,73,0.00,,,0.00,Wunderground v.1.15,2013-01-21 13:36:00,
2013-01-21 07:42:00,-8.9,-15.8,30.22,West,281,0.0,0.0,71,0.00,,,0.00,Wunderground v.1.15,2013-01-21 13:42:00,
2013-01-21 07:47:00,-9.0,-16.1,30.23,NW,310,0.0,0.0,70,0.00,,,0.00,Wunderground v.1.15,2013-01-21 13:47:00,
2013-01-21 07:53:00,-9.1,-16.2,30.23,West,279,0.0,0.0,70,0.00,,,0.00,Wunderground v.1.15,2013-01-21 13:53:00,
2013-01-21 07:59:00,-9.1,-16.2,30.23,WNW,283,0.0,0.0,70,0.00,,,0.00,Wunderground v.1.15,2013-01-21 13:59:00,
2013-01-21 08:04:00,-9.1,-16.0,30.23,WNW,295,0.0,0.0,71,0.00,,,0.00,Wunderground v.1.15,2013-01-21 14:04:00,
2013-01-21 08:10:00,-9.1,-16.0,30.23,NW,306,0.0,0.0,71,0.00,,,0.00,Wunderground v.1.15,2013-01-21 14:10:00,
2013-01-21 08:16:00,-9.1,-16.0,30.23,WNW,300,0.0,0.0,71,0.00,,,0.00,Wunderground v.1.15,2013-01-21 14:16:00,
2013-01-21 08:22:00,-9.0,-15.9,30.23,WNW,296,0.0,0.0,71,0.00,,,0.00,Wunderground v.1.15,2013-01-21 14:22:00,
2013-01-21 08:28:00,-9.0,-16.1,30.24,West,277,0.0,0.0,70,0.00,,,0.00,Wunderground v.1.15,2013-01-21 14:28:00,
2013-01-21 08:35:00,-8.9,-16.0,30.24,WNW,288,0.0,0.0,70,0.00,,,0.00,Wunderground v.1.15,2013-01-21 14:35:00,
2013-01-21 08:40:00,-8.9,-16.0,30.24,WNW,288,0.0,0.0,70,0.00,,,0.00,Wunderground v.1.15,2013-01-21 14:40:00,
2013-01-21 08:45:00,-8.8,-16.0,30.25,West,279,0.0,0.0,70,0.00,,,0.00,Wunderground v.1.15,2013-01-21 14:45:00,
2013-01-21 08:50:00,-8.8,-16.0,30.24,WNW,290,0.0,0.0,70,0.00,,,0.00,Wunderground v.1.15,2013-01-21 14:50:00,
2013-01-21 08:56:00,-8.7,-15.6,30.24,West,279,0.0,0.0,71,0.00,,,0.00,Wunderground v.1.15,2013-01-21 14:56:00,
2013-01-21 09:02:00,-8.8,-16.0,30.24,WNW,297,0.0,0.0,70,0.00,,,0.00,Wunderground v.1.15,2013-01-21 15:02:00,
2013-01-21 09:08:00,-8.8,-15.7,30.24,WNW,291,0.0,0.0,71,0.00,,,0.00,Wunderground v.1.15,2013-01-21 15:08:00,
2013-01-21 09:14:00,-8.7,-15.6,30.25,WNW,288,0.0,0.0,71,0.00,,,0.00,Wunderground v.1.15,2013-01-21 15:14:00,
2013-01-21 09:20:00,-9.0,-16.1,30.25,West,278,0.0,0.0,70,0.00,,,0.00,Wunderground v.1.15,2013-01-21 15:20:00,
2013-01-21 09:26:00,-8.8,-16.0,30.25,WNW,294,0.0,0.0,70,0.00,,,0.00,Wunderground v.1.15,2013-01-21 15:26:00,
2013-01-21 09:31:00,-9.0,-16.4,30.26,West,273,0.0,0.0,69,0.00,,,0.00,Wunderground v.1.15,2013-01-21 15:31:00,
2013-01-21 09:37:00,-8.8,-16.2,30.26,WNW,296,0.0,0.0,69,0.00,,,0.00,Wunderground v.1.15,2013-01-21 15:37:00,
2013-01-21 09:42:00,-8.8,-16.2,30.26,West,263,0.0,0.0,69,0.00,,,0.00,Wunderground v.1.15,2013-01-21 15:42:00,
2013-01-21 09:48:00,-8.6,-16.0,30.26,NNW,344,0.0,0.0,69,0.00,,,0.00,Wunderground v.1.15,2013-01-21 15:48:00,
2013-01-21 09:54:00,-9.0,-17.0,30.26,West,267,0.0,0.0,67,0.00,,,0.00,Wunderground v.1.15,2013-01-21 15:54:00,
2013-01-21 10:00:00,-8.6,-16.9,30.26,NW,305,0.0,0.0,66,0.00,,,0.00,Wunderground v.1.15,2013-01-21 16:00:00,
2013-01-21 10:05:00,-8.5,-17.1,30.26,West,268,0.0,0.0,65,0.00,,,0.00,Wunderground v.1.15,2013-01-21 16:05:00,
2013-01-21 10:11:00,-8.2,-16.5,30.26,West,269,0.0,0.0,66,0.00,,,0.00,Wunderground v.1.15,2013-01-21 16:11:00,
2013-01-21 10:17:00,-8.4,-16.7,30.26,NW,325,0.0,0.0,66,0.00,,,0.00,Wunderground v.1.15,2013-01-21 16:17:00,
2013-01-21 10:23:00,-8.3,-16.3,30.27,WNW,292,0.0,0.0,67,0.00,,,0.00,Wunderground v.1.15,2013-01-21 16:23:00,
2013-01-21 10:30:00,-8.0,-15.5,30.26,West,265,0.0,0.0,69,0.00,,,0.00,Wunderground v.1.15,2013-01-21 16:30:00,
2013-01-21 10:35:00,-8.1,-16.1,30.26,West,277,0.0,0.0,67,0.00,,,0.00,Wunderground v.1.15,2013-01-21 16:35:00,
2013-01-21 10:42:00,-8.3,-16.0,30.26,NW,319,0.0,0.0,68,0.00,,,0.00,Wunderground v.1.15,2013-01-21 16:42:00,
2013-01-21 10:48:00,-8.2,-16.2,30.26,West,281,0.0,0.0,67,0.00,,,0.00,Wunderground v.1.15,2013-01-21 16:48:00,
2013-01-21 10:54:00,-8.4,-17.0,30.26,NNW,327,0.0,0.0,65,0.00,,,0.00,Wunderground v.1.15,2013-01-21 16:54:00,
2013-01-21 10:59:00,-7.9,-16.2,30.26,West,263,0.0,0.0,66,0.00,,,0.00,Wunderground v.1.15,2013-01-21 16:59:00,
2013-01-21 11:06:00,-8.0,-16.3,30.23,WNW,285,0.0,0.0,66,0.00,,,0.00,Wunderground v.1.15,2013-01-21 17:06:00,
2013-01-21 11:11:00,-7.7,-16.1,30.25,West,275,0.0,0.0,66,0.00,,,0.00,Wunderground v.1.15,2013-01-21 17:11:00,
2013-01-21 11:17:00,-7.9,-15.9,30.26,NW,315,0.0,0.0,67,0.00,,,0.00,Wunderground v.1.15,2013-01-21 17:17:00,
2013-01-21 11:23:00,-8.0,-17.3,30.24,WNW,300,0.0,0.0,63,0.00,,,0.00,Wunderground v.1.15,2013-01-21 17:23:00,
2013-01-21 11:29:00,-8.0,-16.9,30.24,West,259,0.0,0.0,64,0.00,,,0.00,Wunderground v.1.15,2013-01-21 17:29:00,
2013-01-21 11:35:00,-8.0,-15.8,30.24,WNW,283,0.0,0.0,68,0.00,,,0.00,Wunderground v.1.15,2013-01-21 17:35:00,
2013-01-21 11:41:00,-7.9,-15.9,30.24,WNW,298,0.0,0.0,67,0.00,,,0.00,Wunderground v.1.15,2013-01-21 17:41:00,
2013-01-21 11:47:00,-7.8,-15.6,30.23,WNW,282,0.0,0.0,68,0.00,,,0.00,Wunderground v.1.15,2013-01-21 17:47:00,
2013-01-21 11:53:00,-7.8,-15.9,30.24,WNW,287,0.0,0.0,67,0.00,,,0.00,Wunderground v.1.15,2013-01-21 17:53:00,
2013-01-21 11:58:00,-7.5,-15.9,30.20,WNW,289,0.0,0.0,66,0.00,,,0.00,Wunderground v.1.15,2013-01-21 17:58:00,
2013-01-21 12:04:00,-7.2,-15.9,30.21,West,275,0.0,0.0,65,0.00,,,0.00,Wunderground v.1.15,2013-01-21 18:04:00,
2013-01-21 12:10:00,-7.7,-16.7,30.22,WNW,298,0.0,0.0,64,0.00,,,0.00,Wunderground v.1.15,2013-01-21 18:10:00,
2013-01-21 12:16:00,-7.1,-16.4,30.23,West,279,0.0,0.0,63,0.00,,,0.00,Wunderground v.1.15,2013-01-21 18:16:00,
2013-01-21 12:21:00,-6.8,-16.1,30.23,West,280,0.0,0.0,63,0.00,,,0.00,Wunderground v.1.15,2013-01-21 18:21:00,
2013-01-21 12:26:00,-7.1,-16.7,30.24,West,277,0.0,0.0,62,0.00,,,0.00,Wunderground v.1.15,2013-01-21 18:26:00,
2013-01-21 12:32:00,-7.0,-16.6,30.21,West,277,0.0,0.0,62,0.00,,,0.00,Wunderground v.1.15,2013-01-21 18:32:00,
2013-01-21 12:38:00,-7.0,-16.6,30.20,West,269,0.0,0.0,62,0.00,,,0.00,Wunderground v.1.15,2013-01-21 18:38:00,
2013-01-21 12:44:00,-6.9,-16.8,30.22,WNW,289,0.0,0.0,61,0.00,,,0.00,Wunderground v.1.15,2013-01-21 18:44:00,
2013-01-21 12:50:00,-6.7,-16.6,30.22,WNW,288,0.0,0.0,61,0.00,,,0.00,Wunderground v.1.15,2013-01-21 18:50:00,
2013-01-21 12:55:00,-6.6,-16.9,30.22,West,277,0.0,0.0,60,0.00,,,0.00,Wunderground v.1.15,2013-01-21 18:55:00,
2013-01-21 13:01:00,-6.5,-16.5,30.22,West,279,0.0,0.0,61,0.00,,,0.00,Wunderground v.1.15,2013-01-21 19:01:00,
2013-01-21 13:06:00,-6.8,-16.4,30.22,WNW,282,0.0,0.0,62,0.00,,,0.00,Wunderground v.1.15,2013-01-21 19:06:00,
2013-01-21 13:12:00,-6.7,-16.6,30.22,West,260,0.0,0.0,61,0.00,,,0.00,Wunderground v.1.15,2013-01-21 19:12:00,
2013-01-21 13:18:00,-6.7,-16.6,30.21,West,273,0.0,0.0,61,0.00,,,0.00,Wunderground v.1.15,2013-01-21 19:18:00,
2013-01-21 13:24:00,-6.5,-16.1,30.22,WNW,298,0.0,0.0,62,0.00,,,0.00,Wunderground v.1.15,2013-01-21 19:24:00,
2013-01-21 13:29:00,-6.2,-15.9,30.22,West,277,0.0,0.0,62,0.00,,,0.00,Wunderground v.1.15,2013-01-21 19:29:00,
2013-01-21 13:35:00,-6.9,-17.2,30.22,WNW,283,0.0,0.0,60,0.00,,,0.00,Wunderground v.1.15,2013-01-21 19:35:00,
2013-01-21 13:41:00,-7.0,-16.9,30.22,West,269,0.0,0.0,61,0.00,,,0.00,Wunderground v.1.15,2013-01-21 19:41:00,
2013-01-21 13:47:00,-7.0,-16.9,30.22,WNW,283,0.0,0.0,61,0.00,,,0.00,Wunderground v.1.15,2013-01-21 19:47:00,
2013-01-21 13:53:00,-6.6,-15.6,30.23,WNW,294,0.0,0.0,64,0.00,,,0.00,Wunderground v.1.15,2013-01-21 19:53:00,
2013-01-21 13:59:00,-6.5,-15.8,30.22,WNW,300,0.0,0.0,63,0.00,,,0.00,Wunderground v.1.15,2013-01-21 19:59:00,
2013-01-21 14:04:00,-6.4,-16.0,30.23,West,269,0.0,0.0,62,0.00,,,0.00,Wunderground v.1.15,2013-01-21 20:04:00,
2013-01-21 14:10:00,-6.0,-15.7,30.22,West,277,0.0,0.0,62,0.00,,,0.00,Wunderground v.1.15,2013-01-21 20:10:00,
2013-01-21 14:16:00,-6.1,-15.8,30.22,West,274,0.0,0.0,62,0.00,,,0.00,Wunderground v.1.15,2013-01-21 20:16:00,
2013-01-21 14:21:00,-6.3,-15.9,30.22,WNW,282,0.0,0.0,62,0.00,,,0.00,Wunderground v.1.15,2013-01-21 20:21:00,
2013-01-21 14:27:00,-6.2,-15.9,30.23,West,270,0.0,0.0,62,0.00,,,0.00,Wunderground v.1.15,2013-01-21 20:27:00,
2013-01-21 14:33:00,-6.1,-16.1,30.23,West,278,0.0,0.0,61,0.00,,,0.00,Wunderground v.1.15,2013-01-21 20:33:00,
2013-01-21 14:39:00,-5.7,-15.7,30.23,West,263,0.0,0.0,61,0.00,,,0.00,Wunderground v.1.15,2013-01-21 20:39:00,
2013-01-21 14:45:00,-6.0,-16.3,30.23,WNW,292,0.0,0.0,60,0.00,,,0.00,Wunderground v.1.15,2013-01-21 20:45:00,
2013-01-21 14:51:00,-5.6,-15.9,30.23,WSW,257,0.0,0.0,60,0.00,,,0.00,Wunderground v.1.15,2013-01-21 20:51:00,
2013-01-21 14:56:00,-5.7,-16.4,30.23,WNW,303,0.0,0.0,59,0.00,,,0.00,Wunderground v.1.15,2013-01-21 20:56:00,
2013-01-21 15:02:00,-5.5,-16.2,30.23,WNW,294,0.0,0.0,59,0.00,,,0.00,Wunderground v.1.15,2013-01-21 21:02:00,
2013-01-21 15:08:00,-5.6,-16.6,30.23,WNW,295,0.0,0.0,58,0.00,,,0.00,Wunderground v.1.15,2013-01-21 21:08:00,
2013-01-21 15:14:00,-5.7,-16.4,30.23,WNW,282,0.0,0.0,59,0.00,,,0.00,Wunderground v.1.15,2013-01-21 21:14:00,
2013-01-21 15:20:00,-5.8,-16.4,30.24,West,277,0.0,0.0,59,0.00,,,0.00,Wunderground v.1.15,2013-01-21 21:20:00,
2013-01-21 15:26:00,-5.9,-16.5,30.24,West,273,0.0,0.0,59,0.00,,,0.00,Wunderground v.1.15,2013-01-21 21:26:00,
2013-01-21 15:32:00,-5.8,-16.4,30.24,WNW,290,0.0,0.0,59,0.00,,,0.00,Wunderground v.1.15,2013-01-21 21:32:00,
2013-01-21 15:38:00,-5.6,-16.3,30.24,West,274,0.0,0.0,59,0.00,,,0.00,Wunderground v.1.15,2013-01-21 21:38:00,
2013-01-21 15:43:00,-5.7,-16.4,30.24,WNW,284,0.0,0.0,59,0.00,,,0.00,Wunderground v.1.15,2013-01-21 21:43:00,
2013-01-21 15:49:00,-5.9,-16.5,30.24,WNW,303,0.0,0.0,59,0.00,,,0.00,Wunderground v.1.15,2013-01-21 21:49:00,
2013-01-21 15:55:00,-6.2,-16.5,30.25,West,272,0.0,0.0,60,0.00,,,0.00,Wunderground v.1.15,2013-01-21 21:55:00,
2013-01-21 16:01:00,-6.2,-16.5,30.24,WNW,292,0.0,0.0,60,0.00,,,0.00,Wunderground v.1.15,2013-01-21 22:01:00,
2013-01-21 16:06:00,-6.3,-16.6,30.24,West,277,0.0,0.0,60,0.00,,,0.00,Wunderground v.1.15,2013-01-21 22:06:00,
2013-01-21 16:12:00,-6.4,-16.7,30.25,West,276,0.0,0.0,60,0.00,,,0.00,Wunderground v.1.15,2013-01-21 22:12:00,
2013-01-21 16:18:00,-6.4,-16.0,30.25,WNW,286,0.0,0.0,62,0.00,,,0.00,Wunderground v.1.15,2013-01-21 22:18:00,
2013-01-21 16:24:00,-6.8,-16.1,30.25,WNW,302,0.0,0.0,63,0.00,,,0.00,Wunderground v.1.15,2013-01-21 22:24:00,
2013-01-21 16:30:00,-6.9,-15.9,30.25,West,267,0.0,0.0,64,0.00,,,0.00,Wunderground v.1.15,2013-01-21 22:30:00,
2013-01-21 16:35:00,-7.0,-16.0,30.25,West,272,0.0,0.0,64,0.00,,,0.00,Wunderground v.1.15,2013-01-21 22:35:00,
2013-01-21 16:41:00,-7.2,-16.5,30.26,WNW,283,0.0,0.0,63,0.00,,,0.00,Wunderground v.1.15,2013-01-21 22:41:00,
2013-01-21 16:46:00,-7.2,-16.2,30.25,WNW,300,0.0,0.0,64,0.00,,,0.00,Wunderground v.1.15,2013-01-21 22:46:00,
2013-01-21 16:51:00,-7.3,-16.0,30.25,West,279,0.0,0.0,65,0.00,,,0.00,Wunderground v.1.15,2013-01-21 22:51:00,
2013-01-21 16:57:00,-7.3,-16.3,30.25,West,275,0.0,0.0,64,0.00,,,0.00,Wunderground v.1.15,2013-01-21 22:57:00,
2013-01-21 17:03:00,-7.3,-16.6,30.26,West,275,0.0,0.0,63,0.00,,,0.00,Wunderground v.1.15,2013-01-21 23:03:00,
2013-01-21 17:09:00,-7.5,-16.8,30.26,WNW,286,0.0,0.0,63,0.00,,,0.00,Wunderground v.1.15,2013-01-21 23:09:00,
2013-01-21 17:15:00,-7.6,-16.9,30.26,West,269,0.0,0.0,63,0.00,,,0.00,Wunderground v.1.15,2013-01-21 23:15:00,
2013-01-21 17:21:00,-7.7,-16.7,30.26,WNW,283,0.0,0.0,64,0.00,,,0.00,Wunderground v.1.15,2013-01-21 23:21:00,
2013-01-21 17:27:00,-7.8,-16.4,30.26,West,280,0.0,0.0,65,0.00,,,0.00,Wunderground v.1.15,2013-01-21 23:27:00,
2013-01-21 17:33:00,-7.9,-16.5,30.27,West,277,0.0,0.0,65,0.00,,,0.00,Wunderground v.1.15,2013-01-21 23:33:00,
2013-01-21 17:38:00,-7.9,-16.5,30.27,West,278,0.0,0.0,65,0.00,,,0.00,Wunderground v.1.15,2013-01-21 23:38:00,
2013-01-21 17:44:00,-8.0,-16.6,30.27,West,281,0.0,0.0,65,0.00,,,0.00,Wunderground v.1.15,2013-01-21 23:44:00,
2013-01-21 17:50:00,-8.0,-16.3,30.28,West,281,0.0,0.0,66,0.00,,,0.00,Wunderground v.1.15,2013-01-21 23:50:00,
2013-01-21 17:56:00,-8.1,-16.1,30.28,West,272,0.0,0.0,67,0.00,,,0.00,Wunderground v.1.15,2013-01-21 23:56:00,
2013-01-21 18:01:00,-8.1,-16.1,30.28,WNW,288,0.0,0.0,67,0.00,,,0.00,Wunderground v.1.15,2013-01-22 00:01:00,
2013-01-21 18:06:00,-8.1,-15.8,30.28,West,280,0.0,0.0,68,0.00,,,0.00,Wunderground v.1.15,2013-01-22 00:06:00,
2013-01-21 18:12:00,-8.2,-15.9,30.29,West,276,0.0,0.0,68,0.00,,,0.00,Wunderground v.1.15,2013-01-22 00:12:00,
2013-01-21 18:17:00,-8.2,-15.9,30.28,West,280,0.0,0.0,68,0.00,,,0.00,Wunderground v.1.15,2013-01-22 00:17:00,
2013-01-21 18:23:00,-8.3,-16.0,30.29,West,271,0.0,0.0,68,0.00,,,0.00,Wunderground v.1.15,2013-01-22 00:23:00,
2013-01-21 18:29:00,-8.3,-16.0,30.29,WNW,289,0.0,0.0,68,0.00,,,0.00,Wunderground v.1.15,2013-01-22 00:29:00,
2013-01-21 18:34:00,-8.3,-16.0,30.29,West,279,0.0,0.0,68,0.00,,,0.00,Wunderground v.1.15,2013-01-22 00:34:00,
2013-01-21 18:40:00,-8.3,-16.0,30.28,West,265,0.0,0.0,68,0.00,,,0.00,Wunderground v.1.15,2013-01-22 00:40:00,
2013-01-21 18:46:00,-8.3,-16.0,30.28,West,281,0.0,0.0,68,0.00,,,0.00,Wunderground v.1.15,2013-01-22 00:46:00,
2013-01-21 18:51:00,-8.3,-16.3,30.29,WNW,286,0.0,0.0,67,0.00,,,0.00,Wunderground v.1.15,2013-01-22 00:51:00,
2013-01-21 18:57:00,-8.4,-16.1,30.29,West,280,0.0,0.0,68,0.00,,,0.00,Wunderground v.1.15,2013-01-22 00:57:00,
2013-01-21 19:03:00,-8.4,-16.1,30.29,WNW,283,0.0,0.0,68,0.00,,,0.00,Wunderground v.1.15,2013-01-22 01:03:00,
2013-01-21 19:08:00,-8.4,-16.1,30.29,WNW,291,0.0,0.0,68,0.00,,,0.00,Wunderground v.1.15,2013-01-22 01:08:00,
2013-01-21 19:14:00,-8.4,-16.1,30.29,WNW,299,0.0,0.0,68,0.00,,,0.00,Wunderground v.1.15,2013-01-22 01:14:00,
2013-01-21 19:20:00,-8.4,-16.1,30.29,West,271,0.0,0.0,68,0.00,,,0.00,Wunderground v.1.15,2013-01-22 01:20:00,
2013-01-21 19:26:00,-8.5,-16.2,30.29,WNW,284,0.0,0.0,68,0.00,,,0.00,Wunderground v.1.15,2013-01-22 01:26:00,
2013-01-21 19:32:00,-8.5,-16.2,30.29,WNW,284,0.0,0.0,68,0.00,,,0.00,Wunderground v.1.15,2013-01-22 01:32:00,
2013-01-21 19:38:00,-8.6,-16.0,30.30,WNW,290,0.0,0.0,69,0.00,,,0.00,Wunderground v.1.15,2013-01-22 01:38:00,
2013-01-21 19:43:00,-8.6,-16.0,30.30,West,277,0.0,0.0,69,0.00,,,0.00,Wunderground v.1.15,2013-01-22 01:43:00,
2013-01-21 19:49:00,-8.7,-16.4,30.30,West,273,0.0,0.0,68,0.00,,,0.00,Wunderground v.1.15,2013-01-22 01:49:00,
2013-01-21 19:54:00,-8.8,-16.5,30.30,West,278,0.0,0.0,68,0.00,,,0.00,Wunderground v.1.15,2013-01-22 01:54:00,
2013-01-21 20:01:00,-8.8,-16.2,30.30,WNW,286,0.0,0.0,69,0.00,,,0.00,Wunderground v.1.15,2013-01-22 02:01:00,
2013-01-21 20:06:00,-8.8,-16.2,30.30,WNW,286,0.0,0.0,69,0.00,,,0.00,Wunderground v.1.15,2013-01-22 02:06:00,
2013-01-21 20:12:00,-8.9,-16.3,30.30,WNW,299,0.0,0.0,69,0.00,,,0.00,Wunderground v.1.15,2013-01-22 02:12:00,
2013-01-21 20:17:00,-8.9,-16.3,30.30,West,267,0.0,0.0,69,0.00,,,0.00,Wunderground v.1.15,2013-01-22 02:17:00,
2013-01-21 20:23:00,-9.0,-16.4,30.31,WNW,289,0.0,0.0,69,0.00,,,0.00,Wunderground v.1.15,2013-01-22 02:23:00,
2013-01-21 20:28:00,-9.0,-16.4,30.31,West,277,0.0,0.0,69,0.00,,,0.00,Wunderground v.1.15,2013-01-22 02:28:00,
2013-01-21 20:34:00,-9.0,-16.4,30.31,WNW,288,0.0,0.0,69,0.00,,,0.00,Wunderground v.1.15,2013-01-22 02:34:00,
2013-01-21 20:40:00,-9.1,-16.2,30.31,WNW,294,0.0,0.0,70,0.00,,,0.00,Wunderground v.1.15,2013-01-22 02:40:00,
2013-01-21 20:46:00,-9.1,-16.2,30.31,West,275,0.0,0.0,70,0.00,,,0.00,Wunderground v.1.15,2013-01-22 02:46:00,
2013-01-21 20:52:00,-9.2,-16.3,30.32,WNW,283,0.0,0.0,70,0.00,,,0.00,Wunderground v.1.15,2013-01-22 02:52:00,
2013-01-21 20:58:00,-9.2,-16.3,30.32,NW,317,0.0,0.0,70,0.00,,,0.00,Wunderground v.1.15,2013-01-22 02:58:00,
2013-01-21 21:03:00,-9.3,-16.4,30.32,WNW,292,0.0,0.0,70,0.00,,,0.00,Wunderground v.1.15,2013-01-22 03:03:00,
2013-01-21 21:09:00,-9.3,-16.2,30.32,West,279,0.0,0.0,71,0.00,,,0.00,Wunderground v.1.15,2013-01-22 03:09:00,
2013-01-21 21:14:00,-9.4,-16.3,30.32,West,271,0.0,0.0,71,0.00,,,0.00,Wunderground v.1.15,2013-01-22 03:14:00,
2013-01-21 21:20:00,-9.4,-16.3,30.32,West,268,0.0,0.0,71,0.00,,,0.00,Wunderground v.1.15,2013-01-22 03:20:00,
2013-01-21 21:26:00,-9.5,-16.3,30.32,West,278,0.0,0.0,71,0.00,,,0.00,Wunderground v.1.15,2013-01-22 03:26:00,
2013-01-21 21:32:00,-9.5,-16.3,30.32,WNW,302,0.0,0.0,71,0.00,,,0.00,Wunderground v.1.15,2013-01-22 03:32:00,
2013-01-21 21:38:00,-9.5,-16.3,30.32,WNW,282,0.0,0.0,71,0.00,,,0.00,Wunderground v.1.15,2013-01-22 03:38:00,
2013-01-21 21:43:00,-9.6,-16.4,30.32,WNW,286,0.0,0.0,71,0.00,,,0.00,Wunderground v.1.15,2013-01-22 03:43:00,
2013-01-21 21:49:00,-9.7,-16.5,30.33,WNW,284,0.0,0.0,71,0.00,,,0.00,Wunderground v.1.15,2013-01-22 03:49:00,
2013-01-21 21:55:00,-9.7,-16.5,30.33,West,269,0.0,0.0,71,0.00,,,0.00,Wunderground v.1.15,2013-01-22 03:55:00,
2013-01-21 22:01:00,-9.8,-16.4,30.33,West,276,0.0,0.0,72,0.00,,,0.00,Wunderground v.1.15,2013-01-22 04:01:00,
2013-01-21 22:06:00,-9.8,-16.4,30.33,West,267,0.0,0.0,72,0.00,,,0.00,Wunderground v.1.15,2013-01-22 04:06:00,
2013-01-21 22:12:00,-9.8,-16.4,30.33,WNW,285,0.0,0.0,72,0.00,,,0.00,Wunderground v.1.15,2013-01-22 04:12:00,
2013-01-21 22:18:00,-9.8,-16.4,30.33,West,274,0.0,0.0,72,0.00,,,0.00,Wunderground v.1.15,2013-01-22 04:18:00,
2013-01-21 22:23:00,-9.9,-16.5,30.33,WNW,284,0.0,0.0,72,0.00,,,0.00,Wunderground v.1.15,2013-01-22 04:23:00,
2013-01-21 22:29:00,-10.0,-16.6,30.33,WNW,285,0.0,0.0,72,0.00,,,0.00,Wunderground v.1.15,2013-01-22 04:29:00,
2013-01-21 22:35:00,-10.0,-16.6,30.33,West,262,0.0,0.0,72,0.00,,,0.00,Wunderground v.1.15,2013-01-22 04:35:00,
2013-01-21 22:40:00,-10.0,-16.3,30.33,West,277,0.0,0.0,73,0.00,,,0.00,Wunderground v.1.15,2013-01-22 04:40:00,
2013-01-21 22:46:00,-10.1,-16.4,30.33,West,261,0.0,0.0,73,0.00,,,0.00,Wunderground v.1.15,2013-01-22 04:46:00,
2013-01-21 22:52:00,-10.2,-16.5,30.33,West,272,0.0,0.0,73,0.00,,,0.00,Wunderground v.1.15,2013-01-22 04:52:00,
2013-01-21 22:58:00,-10.2,-16.5,30.33,West,271,0.0,0.0,73,0.00,,,0.00,Wunderground v.1.15,2013-01-22 04:58:00,
2013-01-21 23:01:00,-10.3,-16.6,30.33,West,275,0.0,0.0,73,0.00,,,0.00,Wunderground v.1.15,2013-01-22 05:01:00,
2013-01-21 23:02:00,-10.3,-16.6,30.33,West,273,0.0,0.0,73,0.00,,,0.00,Wunderground v.1.15,2013-01-22 05:02:00,
2013-01-21 23:04:00,-10.3,-16.6,30.33,West,267,0.0,0.0,73,0.00,,,0.00,Wunderground v.1.15,2013-01-22 05:04:00,
2013-01-21 23:05:00,-10.3,-16.6,30.33,WSW,257,0.0,0.0,73,0.00,,,0.00,Wunderground v.1.15,2013-01-22 05:05:00,
2013-01-21 23:10:00,-10.3,-16.6,30.33,West,265,0.0,0.0,73,0.00,,,0.00,Wunderground v.1.15,2013-01-22 05:10:00,
2013-01-21 23:16:00,-10.4,-16.7,30.33,West,273,0.0,0.0,73,0.00,,,0.00,Wunderground v.1.15,2013-01-22 05:16:00,
2013-01-21 23:21:00,-10.4,-16.7,30.33,WSW,254,0.0,0.0,73,0.00,,,0.00,Wunderground v.1.15,2013-01-22 05:21:00,
2013-01-21 23:27:00,-10.5,-16.5,30.33,West,274,0.0,0.0,74,0.00,,,0.00,Wunderground v.1.15,2013-01-22 05:27:00,
2013-01-21 23:32:00,-10.6,-16.6,30.33,WSW,256,0.0,0.0,74,0.00,,,0.00,Wunderground v.1.15,2013-01-22 05:32:00,
2013-01-21 23:38:00,-10.6,-16.6,30.33,WSW,252,0.0,0.0,74,0.00,,,0.00,Wunderground v.1.15,2013-01-22 05:38:00,
2013-01-21 23:44:00,-10.6,-16.6,30.33,West,267,0.0,0.0,74,0.00,,,0.00,Wunderground v.1.15,2013-01-22 05:44:00,
2013-01-21 23:50:00,-10.6,-16.6,30.33,West,273,0.0,0.0,74,0.00,,,0.00,Wunderground v.1.15,2013-01-22 05:50:00,
2013-01-21 23:55:00,-10.7,-16.7,30.33,WSW,254,0.0,0.0,74,0.00,,,0.00,Wunderground v.1.15,2013-01-22 05:55:00,